User: anonymous   Login
Location: Enborne
(51.3833°N, 1.3667°W)
Time: 03:01:17
(UTC+00:00)
Language:

Sich 1 Rocket - Orbit

View from above orbital plane
View from above orbital plane
View from above satellite
View from above satellite

Ground track
Ground track

The orbit data is extracted from the following two-line orbital elements,

1 23659U 95046C   20332.92470831 +.00000092 +00000-0 +94161-5 0  9990
2 23659 082.5322 216.4941 0027124 073.9729 296.9694 14.78353210360344
Epoch (UTC): 27 November 2020 22:11:34
Eccentricity: 0.0027124
inclination: 82.5322°
perigee height: 615 km
apogee height: 653 km
right ascension of ascending node: 216.4941°
argument of perigee: 73.9729°
revolutions per day: 14.78353210
mean anomaly at epoch: 296.9694°
orbit number at epoch: 36034

The dashed part of the orbit path shows where the satellite is in the earth's shadow,  

DLR